Regional Weather Roundup
Issued by NWS

Home | Current Version | Previous Version | Text Only | Print | Product List | Glossary On
Versions: 1 2 3 4 5 6 7 8 9 10 11 12 13 14 15 16 17 18 19 20 21 22 23 24 25 26 27 28 29 30 31 32 33 34 35 36 37 38 39 40 41 42 43 44 45 46 47 48 49 50
000
ASUS43 KLSX 310410
RWRMO

WEATHER SUMMARY FOR MISSOURI
NATIONAL WEATHER SERVICE SPRINGFIELD MO
1100 PM CDT SUN AUG 30 2015

NOTE: "FAIR" INDICATES FEW OR NO CLOUDS BELOW 12,000 FEET WITH NO
       SIGNIFICANT WEATHER AND/OR OBSTRUCTIONS TO VISIBILITY.
       CURRENT SKY AND/OR WEATHER CONDITIONS ARE NOT AVAILABLE FOR
       CHILLICOTHE AND FARMINGTON.

MOZ001>031-035>038-043-044-053-054-310500-
...NORTHERN AND WESTERN MISSOURI...

CITY           SKY/WX    TMP DP  RH WIND       PRES   REMARKS
KANSAS CTY INT PTCLDY    74  69  85 SE7       29.98S
KANSAS C DTWN  PTCLDY    79  71  76 SE5       29.97R
LEE`S SUMMIT   MOCLDY    76  70  82 SE3       29.99S
ST JOSEPH      CLOUDY    71  69  93 CALM      29.97S
CHILLICOTHE      N/A     76  71  85 CALM      30.00R
KIRKSVILLE     CLEAR     70  66  87 SE5       30.01F

$$
MOZ066>068-077>081-088>096-101>105-310500-
...SOUTHWEST MISSOURI...

CITY           SKY/WX    TMP DP  RH WIND       PRES   REMARKS
SPRINGFIELD    CLEAR     75  70  84 SE7       30.00F
JOPLIN         CLEAR     76  70  82 SE6       29.97F

$$
MOZ032>034-039>042-045>050-055>058-069>072-310500-
...CENTRAL MISSOURI...

CITY           SKY/WX    TMP DP  RH WIND       PRES   REMARKS
COLUMBIA       CLEAR     75  71  87 SE5       30.00F
JEFFERSON CITY PTCLDY    75  72  90 CALM      29.98F
ROLLA          CLEAR     74  70  87 S7        30.01F
SEDALIA        MOCLDY    77  71  82 SE5       30.00F
WHITEMAN AFB   PTCLDY    75  73  94 SE5       29.97F
OSAGE BEACH    MOCLDY    75  70  83 SE3       30.00F

$$
MOZ051-052-059>065-310500-
...EAST CENTRAL MISSOURI...

CITY           SKY/WX    TMP DP  RH WIND       PRES   REMARKS
ST LOUIS INTL  MOCLDY    81  69  67 S7        30.01F
SPIRIT OF STL  PTCLDY    73  72  96 CALM      29.99F
ST CHARLES     CLEAR     74  71  91 E3        29.99F

$$
MOZ072>076-082>087-097>100-106>115-310500-
...SOUTH CENTRAL AND SOUTHEAST MISSOURI...

CITY           SKY/WX    TMP DP  RH WIND       PRES   REMARKS
CAPE GIRARDEAU PTCLDY    73  68  84 CALM      30.04S
FARMINGTON     PTCLDY    72  70  94 SE3       30.06S
POPLAR BLUFF   CLEAR     73  68  84 S5        30.01S
WEST PLAINS    CLEAR     73  67  81 CALM      30.04F

$$


USA.gov is the U.S. government's official web portal to all federal, state and local government web resources and services.